This demonstration page uses our WeatherBlox Daily Observations layout. Learn more.

Left ArrowRight Arrow

Hourly Observations for August 12, 2022

Temp ( °F °C ) Dew Point ( °F °C ) Humidity (%) Winds ( mph kmh ) Pressure ( in mb ) Visibility ( mi km ) Precip ( " mm )
12:53 am 00:53 Clear 66 18.9 50 10 56 56 Calm 30.08 1019 10 16 0.00 0.00
1:53 am 01:53 Clear 61 16.1 50 10 67 67 W 7 11 30.09 1019 10 16 0.00 0.00
2:53 am 02:53 Clear 58 14.4 48 8.9 70 70 SW 6 9 30.11 1020 10 16 0.00 0.00
3:53 am 03:53 Clear 58 14.4 50 10 75 75 ESE 5 7 30.11 1020 10 16 0.00 0.00
4:53 am 04:53 Clear 54 12.2 48 8.9 80 80 Calm 30.12 1020 10 16 0.00 0.00
5:53 am 05:53 Clear 54 12.2 49 9.4 83 83 SE 3 6 30.13 1020 10 16 0.00 0.00
6:53 am 06:53 Sunny 55 12.8 48 8.9 77 77 Calm 30.14 1021 10 16 0.00 0.00
7:53 am 07:53 Sunny 64 17.8 49 9.4 58 58 E 5 7 30.13 1020 10 16 0.00 0.00
8:53 am 08:53 Sunny 72 22.2 49 9.4 44 44 ENE 10 17 30.10 1019 10 16 0.00 0.00
9:53 am 09:53 Sunny 77 25 49 9.4 37 37 ENE 7 11 30.11 1020 10 16 0.00 0.00
10:53 am 10:53 Sunny 79 26.1 48 8.9 34 34 Calm 30.08 1019 10 16 0.00 0.00
11:53 am 11:53 Sunny 81 27.2 48 8.9 32 32 Calm 30.06 1018 10 16 0.00 0.00
12:53 pm 12:53 Sunny 87 30.6 46 7.8 24 24 NW 8 13 30.03 1017 10 16 0.00 0.00
1:53 pm 13:53 Sunny 89 31.7 45 7.2 22 22 undefined N/A 30.02 1017 10 16 0.00 0.00
2:26 pm 14:26 Sunny with Nearby Thunderstorms 90 32.2 45 7.2 21 21 VRB 3 6 29.61 1003 10 16 0.00 0.00
2:53 pm 14:53 Sunny with Nearby Thunderstorms 87 30.6 45 7.2 23 23 W 5 7 30.01 1016 10 16 0.00 0.00
3:19 pm 15:19 Sunny 80 26.7 46 7.8 30 30 SE 30 48 29.71 1006 10 16 0.00 0.00
3:53 pm 15:53 Mostly Cloudy 83 28.3 45 7.2 26 26 ESE 21 33 30.02 1017 10 16 0.00 0.00
4:53 pm 16:53 Sunny 88 31.1 40 4.4 19 19 Calm 29.97 1015 10 16 0.00 0.00
5:53 pm 17:53 Sunny 87 30.6 46 7.8 24 24 SSE 12 19 29.96 1015 10 16 0.00 0.00
6:53 pm 18:53 Sunny 82 27.8 45 7.2 27 27 W 10 17 29.97 1015 10 16 0.00 0.00
7:53 pm 19:53 Sunny 74 23.3 48 8.9 40 40 SSW 6 9 29.98 1015 10 16 0.00 0.00
8:53 pm 20:53 Clear 68 20 51 10.6 55 55 Calm 29.99 1016 10 16 0.00 0.00
9:53 pm 21:53 Partly Cloudy 68 20 48 8.9 49 49 Calm 30.00 1016 10 16 0.00 0.00
10:53 pm 22:53 Mostly Clear 71 21.7 48 8.9 44 44 SSW 7 11 30.00 1016 10 16 0.00 0.00
11:53 pm 23:53 Mostly Cloudy 71 21.7 51 10.6 49 49 Calm 30.03 1017 10 16 0.00 0.00

Powered by AerisWeather